GW6798 Weather Reports


time (UTC)temp
F
wind
direction
speed
knots
gust
knots
rain 1hr
in
rain 24hr
in
rain mn
in
humidity
%
barometer
mb
20260906080212 66 31 3.5 5.2 0.00 0.00 0.00 90 1016.5
20260906075712 66 54 3.5 3.5 0.00 0.00 0.00 90 1016.4
20260906075206 66 49 3.5 5.2 0.00 0.00 0.00 90 1016.2
20260906074701 66 46 5.2 6.1 0.00 0.00 0.00 90 1016.3
20260906074200 66 32 1.7 6.1 0.00 0.00 0.00 89 1016.1
20260906073655 66 58 3.5 6.1 0.00 0.00 0.00 89 1016.1
20260906073151 66 55 4.3 6.1 0.00 0.00 0.00 88 1016.0
20260906072646 67 38 3.5 6.1 0.00 0.00 0.00 87 1016.1
20260906072141 67 60 5.2 7.0 0.00 0.00 0.00 87 1015.9
20260906071638 67 62 2.6 6.1 0.00 0.00 0.00 86 1015.9
20260906071138 68 35 2.6 7.8 0.00 0.00 0.00 86 1016.0
20260906070634 68 36 5.2 6.1 0.00 0.00 0.00 85 1016.1
20260906070130 68 5 1.7 6.1 0.00 0.00 0.00 85 1016.1
20260906065629 68 45 4.3 6.1 0.00 0.00 0.00 86 1015.9
20260906065125 68 41 2.6 7.0 0.00 0.00 0.00 86 1016.2
20260906064620 68 33 3.5 7.0 0.00 0.00 0.00 86 1016.3
20260906064115 68 48 3.5 5.2 0.00 0.00 0.00 86 1016.2
20260906063616 68 3 1.7 6.1 0.00 0.00 0.00 86 1016.1
20260906063112 68 57 2.6 3.5 0.00 0.00 0.00 86 1016.2
20260906062607 68 11 1.7 5.2 0.00 0.00 0.00 87 1016.1
20260906062106 68 53 4.3 6.1 0.00 0.00 0.00 87 1016.0
20260906061602 68 3 1.7 3.5 0.00 0.00 0.00 87 1016.0
20260906061102 68 10 1.7 3.5 0.00 0.00 0.00 87 1015.9
20260906060558 68 48 1.7 3.5 0.00 0.00 0.00 87 1015.9
20260906060055 68 353 2.6 3.5 0.00 0.00 0.00 88 1015.8
20260906055551 68 27 0.9 3.5 0.00 0.00 0.00 88 1015.7
20260906055046 68 40 1.7 2.6 0.00 0.00 0.00 89 1015.8
20260906054541 69 49 2.6 3.5 0.00 0.00 0.00 88 1015.9
20260906054036 69 26 2.6 3.5 0.00 0.00 0.00 88 1016.0
20260906053532 69 39 1.7 3.5 0.00 0.00 0.00 87 1015.8
20260906053028 69 35 1.7 1.7 0.00 0.00 0.00 88 1015.8
20260906052523 69 40 0.0 0.9 0.00 0.00 0.00 88 1015.8
20260906052020 69 67 0.0 0.0 0.00 0.00 0.00 87 1015.8
20260906051516 69 17 0.9 2.6 0.00 0.00 0.00 87 1015.7
20260906051011 69 34 0.9 2.6 0.00 0.00 0.00 87 1015.7
20260906050511 69 24 1.7 2.6 0.00 0.00 0.00 87 1015.4
20260906050006 69 36 2.6 3.5 0.00 0.00 0.00 87 1015.5
20260906045504 69 27 1.7 3.5 0.00 0.00 0.00 87 1015.5
20260906045000 69 51 2.6 5.2 0.00 0.00 0.00 87 1015.7
20260906044455 69 11 2.6 3.5 0.00 0.00 0.00 86 1015.7
20260906043951 69 31 2.6 3.5 0.00 0.00 0.00 86 1015.5
20260906043447 69 19 0.9 3.5 0.00 0.00 0.00 86 1015.4
20260906042942 69 42 2.6 3.5 0.00 0.00 0.00 86 1015.2
20260906042441 70 356 1.7 5.2 0.00 0.00 0.00 86 1015.0
20260906041936 69 47 2.6 5.2 0.00 0.00 0.00 86 1015.1
20260906041432 69 66 2.6 3.5 0.00 0.00 0.00 87 1015.2
20260906040932 70 28 2.6 3.5 0.00 0.00 0.00 87 1015.1
20260906040427 70 30 1.7 3.5 0.00 0.00 0.00 87 1014.9
20260906035922 70 45 2.6 2.6 0.00 0.30 0.30 87 1015.2
20260906035418 70 43 3.5 6.1 0.00 0.30 0.30 86 1015.1
20260906034913 70 80 3.5 5.2 0.00 0.30 0.30 87 1015.3
20260906034413 70 89 2.6 2.6 0.00 0.30 0.30 88 1015.0
20260906033908 70 80 3.5 5.2 0.00 0.30 0.30 89 1015.0
20260906033408 69 98 3.5 3.5 0.00 0.30 0.30 90 1014.8
20260906032904 69 73 2.6 6.1 0.00 0.30 0.30 91 1015.0
20260906032400 69 51 1.7 3.5 0.00 0.30 0.30 91 1015.1
20260906031855 69 53 3.5 5.2 0.00 0.30 0.30 91 1014.9
20260906031350 69 75 3.5 5.2 0.00 0.30 0.30 92 1014.7
20260906030846 70 54 3.5 5.2 0.00 0.30 0.30 92 1014.8
20260906030341 70 46 2.6 3.5 0.00 0.30 0.30 92 1014.9
20260906025840 70 83 5.2 7.8 0.00 0.30 0.30 92 1014.8
20260906025334 70 38 3.5 7.0 0.00 0.30 0.30 91 1014.9
20260906024834 70 89 4.3 6.1 0.00 0.30 0.30 92 1014.8
20260906024333 70 59 1.7 6.1 0.00 0.30 0.30 92 1014.8
20260906023829 71 35 3.5 5.2 0.00 0.30 0.30 92 1014.8
20260906023324 71 60 4.3 7.0 0.00 0.30 0.30 91 1014.7
20260906022820 71 77 3.5 7.0 0.00 0.30 0.30 91 1014.5
20260906022315 71 116 5.2 7.0 0.00 0.30 0.30 91 1014.5
20260906021810 71 52 1.7 6.1 0.00 0.30 0.30 91 1014.7
20260906021310 71 91 5.2 8.7 0.00 0.30 0.30 91 1014.5
20260906020810 72 87 6.1 7.8 0.00 0.30 0.30 91 1014.6
20260906020310 72 77 5.2 6.1 0.00 0.30 0.30 91 1014.6
20260906015810 72 75 6.1 8.7 0.00 0.30 0.30 91 1014.6
20260906015308 72 63 3.5 7.8 0.00 0.30 0.30 92 1014.6
20260906014803 72 74 3.5 7.8 0.00 0.30 0.30 92 1014.4
20260906014258 72 60 6.1 11.3 0.00 0.30 0.30 91 1014.4
20260906013754 72 87 5.2 6.1 0.00 0.30 0.30 91 1014.2
20260906013249 72 53 4.3 8.7 0.00 0.30 0.30 91 1014.1
20260906012744 72 53 7.8 8.7 0.00 0.30 0.30 91 1013.9
20260906012239 72 50 7.0 11.3 0.00 0.30 0.30 91 1013.8
20260906011735 73 90 6.1 8.7 0.00 0.30 0.30 91 1013.8
20260906011234 73 357 5.2 9.6 0.00 0.30 0.30 91 1013.6
20260906010729 73 42 6.1 7.0 0.00 0.30 0.30 91 1013.5
20260906010226 73 44 5.2 9.6 0.00 0.30 0.30 91 1013.5
20260906005721 73 74 9.6 11.3 0.00 0.30 0.30 91 1013.4
20260906005220 74 78 4.3 11.3 0.00 0.30 0.30 90 1013.3
20260906004719 74 88 5.2 12.2 0.00 0.30 0.30 90 1013.5
20260906004214 74 67 6.1 12.2 0.00 0.30 0.30 90 1013.7
20260906003710 75 84 1.7 6.1 0.00 0.30 0.30 91 1013.5
20260906003206 75 68 3.5 6.1 0.00 0.30 0.30 91 1013.4
20260906002705 75 55 3.5 7.0 0.00 0.30 0.30 91 1013.1
20260906002200 75 76 6.1 8.7 0.00 0.30 0.30 90 1013.4
20260906001656 76 95 9.6 11.3 0.00 0.30 0.30 89 1013.0
20260906001155 76 45 7.0 8.7 0.00 0.30 0.30 88 1013.2
20260906000651 76 36 5.2 12.2 0.00 0.30 0.30 88 1013.0
20260906000146 77 62 5.2 8.7 0.00 0.30 0.30 88 1013.0
20260905235645 77 43 6.1 7.8 0.00 0.30 0.30 87 1013.3
20260905235140 77 356 3.5 8.7 0.00 0.30 0.30 87 1013.2
20260905234636 77 46 6.1 7.8 0.00 0.30 0.30 87 1013.1
20260905234131 77 65 5.2 9.6 0.00 0.30 0.30 87 1012.8
20260905233626 77 58 4.3 6.1 0.00 0.30 0.30 87 1012.7
20260905233120 78 15 4.3 8.7 0.00 0.30 0.30 87 1013.0
20260905232616 78 105 5.2 7.0 0.00 0.30 0.30 87 1012.8
20260905232112 78 55 5.2 7.0 0.00 0.30 0.30 86 1013.0
20260905231611 78 87 5.2 7.0 0.00 0.30 0.30 86 1012.9
20260905231108 78 93 2.6 6.1 0.00 0.30 0.30 86 1012.8
20260905230603 79 76 5.2 8.7 0.00 0.30 0.30 86 1012.6
20260905225600 80 86 5.2 8.7 0.00 0.30 0.30 85 1012.6
20260905225055 80 63 2.6 7.0 0.00 0.30 0.30 85 1012.7
20260905224555 80 78 4.3 6.1 0.00 0.30 0.30 84 1012.6
20260905224055 80 81 4.3 6.1 0.00 0.30 0.30 85 1012.6
20260905223553 80 43 7.0 8.7 0.00 0.30 0.30 83 1012.3
20260905223049 81 46 6.1 8.7 0.00 0.30 0.30 82 1012.3
20260905222548 81 64 5.2 7.8 0.00 0.30 0.30 82 1012.1
20260905222044 80 97 3.5 7.8 0.00 0.30 0.30 83 1012.1
20260905221540 80 53 4.3 8.7 0.00 0.30 0.30 84 1012.2
20260905221036 81 12 4.3 7.8 0.00 0.30 0.30 83 1012.4
20260905220531 83 43 7.8 13.0 0.00 0.30 0.30 79 1012.2
20260905220027 83 96 6.1 7.8 0.00 0.30 0.30 79 1012.0
20260905215526 83 61 4.3 9.6 0.00 0.30 0.30 79 1012.0
20260905215023 83 46 6.1 9.6 0.00 0.30 0.30 79 1011.8
20260905214518 83 19 6.1 9.6 0.00 0.30 0.30 79 1011.9
20260905214013 83 44 5.2 7.8 0.00 0.30 0.30 79 1012.1
20260905213509 82 24 3.5 7.0 0.00 0.30 0.30 81 1011.9
20260905213004 81 37 3.5 8.7 0.00 0.30 0.30 83 1012.0
20260905212459 82 4 4.3 7.8 0.00 0.30 0.30 81 1011.9
20260905211958 84 49 8.7 11.3 0.00 0.30 0.30 78 1012.0
20260905211454 85 37 5.2 7.0 0.00 0.30 0.30 76 1011.8
20260905210949 85 23 7.0 9.6 0.00 0.30 0.30 75 1011.9
20260905210445 85 44 5.2 8.7 0.00 0.30 0.30 75 1011.9
20260905205944 84 43 4.3 7.8 0.00 0.30 0.30 77 1012.1
20260905205439 84 32 6.1 8.7 0.00 0.30 0.30 78 1011.9
20260905204937 84 24 6.1 8.7 0.00 0.30 0.30 78 1012.0
20260905204434 85 356 4.3 9.6 0.00 0.30 0.30 76 1012.2
20260905203932 85 32 6.1 7.0 0.00 0.30 0.30 75 1012.3
20260905203428 84 34 2.6 6.1 0.00 0.30 0.30 78 1012.1
20260905202924 87 358 7.0 8.7 0.00 0.30 0.30 73 1012.4
20260905202419 86 357 4.3 6.1 0.00 0.30 0.30 72 1012.3
20260905201914 86 333 4.3 5.2 0.00 0.30 0.30 73 1012.2
20260905201410 86 6 3.5 6.1 0.00 0.30 0.30 73 1012.3
20260905200909 85 8 5.2 7.0 0.00 0.30 0.30 75 1012.5
20260905200405 84 0 2.6 6.1 0.00 0.30 0.30 78 1012.4
20260905195903 84 344 3.5 5.2 0.00 0.30 0.30 77 1012.5
20260905195359 84 349 3.5 7.0 0.00 0.30 0.30 76 1012.6
20260905194854 84 353 5.2 6.1 0.00 0.30 0.30 76 1012.4
20260905194354 85 39 1.7 5.2 0.00 0.30 0.30 75 1012.6
20260905193854 86 334 3.5 5.2 0.00 0.30 0.30 74 1012.4
20260905193348 86 16 3.5 5.2 0.00 0.30 0.30 75 1012.6
20260905192844 85 326 4.3 5.2 0.00 0.30 0.30 74 1012.5
20260905192340 85 27 1.7 5.2 0.00 0.30 0.30 74 1012.7
20260905191839 85 326 3.5 7.0 0.00 0.30 0.30 75 1013.0
20260905191338 85 338 5.2 7.8 0.00 0.30 0.30 72 1012.9
20260905190837 86 343 5.2 8.7 0.00 0.30 0.30 72 1012.9
20260905190336 86 1 5.2 7.0 0.00 0.30 0.30 72 1013.0
20260905185835 85 292 2.6 7.0 0.00 0.30 0.30 74 1012.9
20260905185331 85 322 2.6 3.5 0.00 0.30 0.30 75 1013.0
20260905184830 85 307 4.3 7.0 0.00 0.30 0.30 74 1013.1
20260905184329 84 347 1.7 6.1 0.00 0.30 0.30 75 1013.1
20260905183828 84 330 4.3 7.0 0.00 0.30 0.30 72 1013.2
20260905183323 84 285 1.7 3.5 0.00 0.30 0.30 76 1013.2
20260905182818 84 314 4.3 7.0 0.00 0.30 0.30 75 1013.4
20260905182317 84 269 3.5 5.2 0.00 0.30 0.30 76 1013.2
20260905181813 83 250 3.5 6.1 0.00 0.30 0.30 77 1013.4
20260905181312 83 266 3.5 5.2 0.00 0.30 0.30 75 1013.0
20260905180812 83 286 5.2 7.0 0.00 0.30 0.30 75 1013.3
20260905180307 83 279 2.6 3.5 0.00 0.30 0.30 77 1013.2
20260905175802 83 222 2.6 5.2 0.00 0.30 0.30 78 1013.3
20260905175256 82 286 4.3 7.0 0.00 0.30 0.30 76 1013.5
20260905174752 82 291 5.2 7.0 0.00 0.30 0.30 76 1013.5
20260905174247 82 296 5.2 7.8 0.00 0.30 0.30 76 1013.6
20260905173743 82 272 4.3 6.1 0.00 0.30 0.30 78 1013.9
20260905173239 82 277 4.3 5.2 0.00 0.30 0.30 75 1013.6
20260905172733 81 320 3.5 5.2 0.00 0.30 0.30 79 1013.8
20260905172232 80 330 0.0 3.5 0.00 0.30 0.30 78 1013.6
20260905171728 80 351 3.5 6.1 0.00 0.30 0.30 80 1013.9
20260905171224 80 332 4.3 6.1 0.00 0.30 0.30 80 1014.2
20260905170721 79 318 2.6 5.2 0.00 0.30 0.30 82 1014.0
20260905170221 78 292 4.3 5.2 0.00 0.30 0.30 82 1014.1
20260905165715 79 311 5.2 6.1 0.00 0.30 0.30 82 1014.0
20260905165211 78 270 4.3 6.1 0.00 0.30 0.30 82 1014.3
20260905164710 78 263 3.5 7.8 0.00 0.30 0.30 82 1014.2
20260905164211 79 246 3.5 6.1 0.00 0.30 0.30 80 1014.4
20260905163706 79 267 4.3 7.8 0.00 0.30 0.30 81 1014.1
20260905163203 79 254 6.1 7.8 0.00 0.30 0.30 81 1014.1
20260905162659 78 245 4.3 7.0 0.00 0.30 0.30 84 1014.2
20260905162158 78 269 5.2 7.0 0.00 0.30 0.30 84 1014.3
20260905161653 77 240 1.7 7.0 0.00 0.30 0.30 87 1014.3
20260905161151 76 255 3.5 6.1 0.00 0.30 0.30 87 1014.3
20260905160651 75 219 3.5 6.1 0.00 0.30 0.30 89 1014.1
20260905160150 74 224 1.7 5.2 0.00 0.30 0.30 90 1014.3
20260905155650 74 266 2.6 5.2 0.00 0.30 0.30 92 1014.4
20260905155149 73 228 2.6 3.5 0.00 0.30 0.30 94 1014.3
20260905154643 72 256 2.6 3.5 0.00 0.30 0.30 93 1014.5
20260905154139 72 261 1.7 1.7 0.00 0.30 0.30 93 1014.5
20260905153635 72 192 0.9 1.7 0.00 0.30 0.30 94 1014.6
20260905153130 71 37 0.0 0.9 0.00 0.30 0.30 96 1014.7
20260905152625 70 154 1.7 2.6 0.00 0.30 0.30 96 1014.5
20260905152119 70 82 1.7 1.7 0.00 0.30 0.30 95 1014.7
20260905151614 70 78 2.6 2.6 0.07 0.30 0.30 95 1014.6
20260905151110 70 15 1.7 2.6 0.07 0.30 0.30 95 1014.9
20260905150605 70 172 2.6 5.2 0.00 0.29 0.29 95 1014.6
20260905150104 70 203 3.5 5.2 0.00 0.29 0.29 95 1014.6
20260905145602 70 260 2.6 2.6 0.00 0.29 0.29 95 1014.7
20260905145101 70 351 3.5 5.2 0.00 0.29 0.29 95 1014.8
20260905144557 70 201 3.5 7.0 0.42 0.29 0.29 94 1014.2
20260905144056 70 187 7.0 8.7 0.83 0.29 0.29 94 1014.0
20260905143555 70 171 5.2 6.1 0.40 0.22 0.22 94 1014.2
20260905143051 70 168 2.6 2.6 0.00 0.15 0.15 93 1014.5
20260905142549 70 242 1.7 5.2 0.00 0.15 0.15 93 1014.3
20260905142049 70 205 5.2 7.8 0.07 0.15 0.15 92 1014.0
20260905141544 71 147 5.2 6.1 0.07 0.15 0.15 91 1014.2
20260905141041 71 57 3.5 5.2 0.00 0.14 0.14 91 1014.7
20260905140542 71 359 0.0 2.6 0.00 0.14 0.14 90 1014.6
20260905140040 71 82 6.1 7.8 0.00 0.14 0.14 91 1014.6
20260905135531 71 42 5.2 7.0 0.00 0.14 0.14 90 1014.5
20260905135030 71 158 3.5 7.0 0.00 0.14 0.14 89 1013.8
20260905134525 71 184 5.2 9.6 0.00 0.14 0.14 89 1013.7
20260905134024 71 183 4.3 5.2 0.00 0.14 0.14 89 1013.8
20260905133519 71 152 7.0 7.8 0.00 0.14 0.14 89 1014.0
20260905133019 71 195 5.2 7.8 0.00 0.14 0.14 89 1013.6
20260905132519 71 181 6.1 7.8 0.00 0.14 0.14 90 1013.9
20260905132014 71 181 7.0 7.8 0.00 0.14 0.14 90 1013.9
20260905131515 71 170 3.5 6.1 0.00 0.14 0.14 90 1013.7
20260905131010 70 185 5.2 7.8 0.00 0.14 0.14 91 1013.4
20260905130509 70 199 7.8 8.7 0.00 0.14 0.14 92 1013.5
20260905130004 69 179 2.6 5.2 0.00 0.14 0.14 93 1013.6
20260905125458 69 183 4.3 6.1 0.00 0.14 0.14 93 1013.6
20260905124954 69 162 7.8 8.7 0.00 0.14 0.14 93 1013.7
20260905124451 69 185 9.6 11.3 0.00 0.14 0.14 93 1013.7
20260905123946 69 173 9.6 9.6 0.00 0.14 0.14 94 1013.7
20260905123442 69 167 6.1 11.3 0.00 0.14 0.14 94 1013.8
20260905122943 69 203 5.2 7.8 0.00 0.14 0.14 94 1013.9
20260905122442 69 165 7.0 8.7 0.00 0.14 0.14 95 1014.2
20260905121938 68 172 7.0 8.7 0.00 0.14 0.14 95 1014.3
20260905121433 68 176 6.1 7.0 0.00 0.14 0.14 95 1014.2
20260905120932 68 167 5.2 7.8 0.00 0.14 0.14 95 1014.1
20260905120427 68 172 5.2 9.6 0.00 0.14 0.14 96 1014.2
20260905115922 68 214 7.0 9.6 0.00 0.14 0.14 96 1013.9
20260905115421 68 158 7.8 8.7 0.00 0.14 0.14 96 1014.2
20260905114917 68 150 5.2 7.0 0.00 0.14 0.14 96 1014.2
20260905114416 68 169 5.2 7.0 0.00 0.14 0.14 96 1014.1
20260905113915 68 174 5.2 7.0 0.00 0.14 0.14 96 1013.7
20260905113411 68 161 5.2 8.7 0.00 0.14 0.14 96 1013.9
20260905112906 68 183 6.1 8.7 0.00 0.14 0.14 96 1014.1
20260905112401 68 196 5.2 7.0 0.00 0.14 0.14 96 1014.0
20260905111857 68 172 7.0 7.8 0.00 0.14 0.14 96 1014.0
20260905111356 68 160 5.2 7.0 0.00 0.14 0.14 96 1013.9
20260905110856 68 168 5.2 7.8 0.00 0.14 0.14 95 1014.0
20260905110350 68 182 6.1 6.1 0.00 0.14 0.14 95 1014.2
20260905105846 68 171 5.2 6.1 0.00 0.14 0.14 95 1014.2
20260905105345 68 183 5.2 7.0 0.00 0.14 0.14 95 1014.1
20260905104844 68 167 3.5 3.5 0.00 0.14 0.14 95 1013.9
20260905104341 68 159 5.2 7.8 0.00 0.14 0.14 95 1013.8
20260905103840 68 157 4.3 6.1 0.00 0.14 0.14 95 1014.0
20260905103336 68 143 4.3 7.0 0.00 0.14 0.14 95 1014.2
20260905102832 68 130 2.6 6.1 0.00 0.14 0.14 95 1014.3
20260905102329 68 148 5.2 7.0 0.12 0.14 0.14 95 1014.3
20260905101828 68 114 0.9 3.5 0.12 0.14 0.14 95 1014.2
20260905101326 68 147 2.6 9.6 0.42 0.12 0.12 95 1014.0
20260905100821 68 66 2.6 6.1 0.31 0.10 0.10 94 1014.4
20260905100317 69 141 0.9 2.6 0.00 0.05 0.05 94 1014.7
20260905095817 69 87 3.5 7.0 0.00 0.05 0.05 94 1014.6
20260905095316 69 83 2.6 12.2 0.12 0.05 0.05 94 1014.5
20260905094811 69 138 1.7 6.1 0.28 0.05 0.05 93 1014.3
20260905094307 69 119 2.6 7.8 0.17 0.03 0.03 92 1014.9
20260905093806 69 113 3.5 9.6 0.00 0.00 0.00 92 1015.0
20260905093302 69 106 1.7 7.0 0.00 0.00 0.00 91 1014.7
20260905092757 70 337 0.0 7.8 0.00 0.00 0.00 91 1014.8
20260905092252 70 117 1.7 12.2 0.00 0.00 0.00 90 1014.5
20260905091752 70 95 7.8 9.6 0.00 0.00 0.00 89 1014.5
20260905091247 70 106 5.2 11.3 0.00 0.00 0.00 88 1014.2
20260905090746 70 99 1.7 14.8 0.00 0.00 0.00 88 1014.7
20260905090242 70 101 11.3 15.6 0.00 0.00 0.00 87 1014.9
20260905085741 70 111 7.0 16.5 0.00 0.00 0.00 85 1014.6
20260905085241 71 78 12.2 18.2 0.00 0.00 0.00 85 1014.6
20260905084741 71 66 7.8 18.2 0.00 0.00 0.00 85 1014.7
20260905084241 71 96 7.0 8.7 0.00 0.00 0.00 85 1014.7
20260905083736 71 83 3.5 13.9 0.00 0.00 0.00 84 1014.5
20260905083231 71 86 7.0 13.9 0.00 0.00 0.00 84 1014.7
20260905082727 72 89 9.6 13.9 0.00 0.00 0.00 84 1014.5
20260905082224 73 93 14.8 20.0 0.00 0.00 0.00 83 1014.5
20260905081724 73 67 13.9 23.5 0.00 0.00 0.00 93 1014.4
20260905081219 73 71 6.1 7.8 0.00 0.00 0.00 97 1014.0
20260905080719 73 67 2.6 3.5 0.00 0.00 0.00 97 1013.5